Time,TemperatureF,DewpointF,PressureIn,WindDirection,WindDirectionDegrees,WindSpeedMPH,WindSpeedGustMPH,Humidity,HourlyPrecipIn,Conditions,Clouds,dailyrainin,SoftwareType,DateUTC
2013-04-09 00:12:00,60.3,58.0,30.21,SSW,209,9.0,-999.0,93,-99.99,,,0.00,weatherlink.com 1.10,2013-04-09 04:12:00,
2013-04-09 00:27:00,60.3,58.0,30.21,SW,219,7.0,-999.0,93,-99.99,,,0.00,weatherlink.com 1.10,2013-04-09 04:27:00,
2013-04-09 00:42:00,60.6,59.0,30.21,SSW,207,8.0,-999.0,93,-99.99,,,0.00,weatherlink.com 1.10,2013-04-09 04:42:00,
2013-04-09 00:57:00,60.8,59.0,30.21,SSW,205,8.0,-999.0,93,-99.99,,,0.00,weatherlink.com 1.10,2013-04-09 04:57:00,
2013-04-09 01:12:00,60.5,58.0,30.21,SW,217,5.0,-999.0,92,-99.99,,,0.00,weatherlink.com 1.10,2013-04-09 05:12:00,
2013-04-09 01:27:00,60.0,58.0,30.20,SSW,204,7.0,-999.0,93,-99.99,,,0.00,weatherlink.com 1.10,2013-04-09 05:27:00,
2013-04-09 01:42:00,59.8,58.0,30.20,SSW,209,8.0,-999.0,93,-99.99,,,0.00,weatherlink.com 1.10,2013-04-09 05:42:00,
2013-04-09 01:57:00,59.9,58.0,30.20,SW,214,8.0,-999.0,94,-99.99,,,0.00,weatherlink.com 1.10,2013-04-09 05:57:00,
2013-04-09 02:12:00,60.3,58.0,30.20,SSW,210,9.0,-999.0,93,-99.99,,,0.00,weatherlink.com 1.10,2013-04-09 06:12:00,
2013-04-09 02:27:00,60.1,58.0,30.19,SSW,211,8.0,-999.0,93,-99.99,,,0.00,weatherlink.com 1.10,2013-04-09 06:27:00,
2013-04-09 02:42:00,59.8,58.0,30.19,SSW,207,6.0,-999.0,93,-99.99,,,0.00,weatherlink.com 1.10,2013-04-09 06:42:00,
2013-04-09 02:57:00,59.5,58.0,30.18,SW,219,5.0,-999.0,93,-99.99,,,0.00,weatherlink.com 1.10,2013-04-09 06:57:00,
2013-04-09 03:12:00,59.5,58.0,30.18,SSW,211,7.0,-999.0,94,-99.99,,,0.00,weatherlink.com 1.10,2013-04-09 07:12:00,
2013-04-09 03:27:00,59.5,58.0,30.18,SW,215,7.0,-999.0,94,-99.99,,,0.00,weatherlink.com 1.10,2013-04-09 07:27:00,
2013-04-09 03:42:00,59.6,58.0,30.18,SSW,210,8.0,-999.0,94,-99.99,,,0.00,weatherlink.com 1.10,2013-04-09 07:42:00,
2013-04-09 03:57:00,59.7,58.0,30.18,SSW,213,9.0,-999.0,93,-99.99,,,0.00,weatherlink.com 1.10,2013-04-09 07:57:00,
2013-04-09 04:12:00,59.6,58.0,30.18,SW,215,7.0,-999.0,93,-99.99,,,0.00,weatherlink.com 1.10,2013-04-09 08:12:00,
2013-04-09 04:27:00,59.6,58.0,30.18,West,261,4.0,-999.0,93,-99.99,,,0.00,weatherlink.com 1.10,2013-04-09 08:27:00,
2013-04-09 04:42:00,59.5,58.0,30.19,SW,225,7.0,-999.0,94,-99.99,,,0.00,weatherlink.com 1.10,2013-04-09 08:42:00,
2013-04-09 04:57:00,59.6,58.0,30.19,WSW,246,7.0,-999.0,94,-99.99,,,0.00,weatherlink.com 1.10,2013-04-09 08:57:00,
2013-04-09 05:12:00,59.8,58.0,30.20,WSW,244,6.0,-999.0,94,-99.99,,,0.00,weatherlink.com 1.10,2013-04-09 09:12:00,
2013-04-09 05:27:00,59.9,58.0,30.20,WSW,250,7.0,-999.0,94,-99.99,,,0.00,weatherlink.com 1.10,2013-04-09 09:27:00,
2013-04-09 05:42:00,59.8,58.0,30.21,WSW,244,7.0,-999.0,94,-99.99,,,0.00,weatherlink.com 1.10,2013-04-09 09:42:00,
2013-04-09 05:57:00,59.8,58.0,30.21,WSW,249,6.0,-999.0,94,-99.99,,,0.00,weatherlink.com 1.10,2013-04-09 09:57:00,
2013-04-09 06:12:00,59.5,58.0,30.22,WSW,254,2.0,-999.0,94,-99.99,,,0.00,weatherlink.com 1.10,2013-04-09 10:12:00,
2013-04-09 06:27:00,59.3,58.0,30.22,SW,232,3.0,-999.0,94,-99.99,,,0.00,weatherlink.com 1.10,2013-04-09 10:27:00,
2013-04-09 06:42:00,59.4,58.0,30.23,SW,216,3.0,-999.0,94,-99.99,,,0.00,weatherlink.com 1.10,2013-04-09 10:42:00,
2013-04-09 06:57:00,59.4,58.0,30.23,SSW,212,3.0,-999.0,94,-99.99,,,0.00,weatherlink.com 1.10,2013-04-09 10:57:00,
2013-04-09 07:12:00,59.4,58.0,30.23,SW,227,4.0,-999.0,94,-99.99,,,0.00,weatherlink.com 1.10,2013-04-09 11:12:00,
2013-04-09 07:27:00,59.6,58.0,30.24,SW,235,4.0,-999.0,95,-99.99,,,0.00,weatherlink.com 1.10,2013-04-09 11:27:00,
2013-04-09 07:42:00,59.9,58.0,30.25,WSW,246,4.0,-999.0,94,-99.99,,,0.00,weatherlink.com 1.10,2013-04-09 11:42:00,
2013-04-09 07:57:00,60.3,59.0,30.25,WSW,238,3.0,-999.0,95,-99.99,,,0.00,weatherlink.com 1.10,2013-04-09 11:57:00,
2013-04-09 08:12:00,60.8,59.0,30.26,WSW,244,2.0,-999.0,94,-99.99,,,0.00,weatherlink.com 1.10,2013-04-09 12:12:00,
2013-04-09 08:27:00,61.1,59.0,30.25,SW,232,3.0,-999.0,94,-99.99,,,0.00,weatherlink.com 1.10,2013-04-09 12:27:00,
2013-04-09 08:42:00,61.3,60.0,30.26,SW,232,3.0,-999.0,94,-99.99,,,0.00,weatherlink.com 1.10,2013-04-09 12:42:00,
2013-04-09 08:57:00,61.8,60.0,30.26,WSW,239,4.0,-999.0,93,-99.99,,,0.00,weatherlink.com 1.10,2013-04-09 12:57:00,
2013-04-09 09:12:00,62.2,60.0,30.26,WSW,247,5.0,-999.0,92,-99.99,,,0.00,weatherlink.com 1.10,2013-04-09 13:12:00,
2013-04-09 09:27:00,62.5,60.0,30.26,WSW,250,4.0,-999.0,91,-99.99,,,0.00,weatherlink.com 1.10,2013-04-09 13:27:00,
2013-04-09 09:42:00,62.7,60.0,30.26,WSW,241,6.0,-999.0,91,-99.99,,,0.00,weatherlink.com 1.10,2013-04-09 13:42:00,
2013-04-09 09:57:00,63.1,60.0,30.26,West,261,6.0,-999.0,90,-99.99,,,0.00,weatherlink.com 1.10,2013-04-09 13:57:00,
2013-04-09 10:12:00,63.7,61.0,30.27,WSW,241,4.0,-999.0,90,-99.99,,,0.00,weatherlink.com 1.10,2013-04-09 14:12:00,
2013-04-09 10:27:00,64.0,61.0,30.27,WSW,246,5.0,-999.0,89,-99.99,,,0.00,weatherlink.com 1.10,2013-04-09 14:27:00,
2013-04-09 10:43:00,64.3,61.0,30.27,WSW,245,5.0,-999.0,89,-99.99,,,0.00,weatherlink.com 1.10,2013-04-09 14:43:00,
2013-04-09 10:58:00,65.1,62.0,30.27,SW,224,4.0,-999.0,88,-99.99,,,0.00,weatherlink.com 1.10,2013-04-09 14:58:00,
2013-04-09 11:13:00,65.4,62.0,30.27,SW,223,4.0,-999.0,87,-99.99,,,0.00,weatherlink.com 1.10,2013-04-09 15:13:00,
2013-04-09 11:28:00,65.1,61.0,30.27,SW,227,7.0,-999.0,87,-99.99,,,0.00,weatherlink.com 1.10,2013-04-09 15:28:00,
2013-04-09 11:43:00,64.9,61.0,30.26,SW,221,4.0,-999.0,88,-99.99,,,0.00,weatherlink.com 1.10,2013-04-09 15:43:00,
2013-04-09 11:58:00,64.8,61.0,30.26,SSW,209,8.0,-999.0,87,-99.99,,,0.00,weatherlink.com 1.10,2013-04-09 15:58:00,
2013-04-09 12:13:00,64.0,61.0,30.25,SSW,208,9.0,-999.0,89,-99.99,,,0.00,weatherlink.com 1.10,2013-04-09 16:13:00,
2013-04-09 12:28:00,64.1,61.0,30.25,SSW,198,11.0,-999.0,90,-99.99,,,0.00,weatherlink.com 1.10,2013-04-09 16:28:00,
2013-04-09 12:43:00,64.0,61.0,30.25,SSW,207,10.0,-999.0,90,-99.99,,,0.00,weatherlink.com 1.10,2013-04-09 16:43:00,
2013-04-09 12:58:00,64.2,61.0,30.24,SSW,206,11.0,-999.0,90,-99.99,,,0.00,weatherlink.com 1.10,2013-04-09 16:58:00,
2013-04-09 13:13:00,64.9,62.0,30.23,SSW,205,12.0,-999.0,89,-99.99,,,0.00,weatherlink.com 1.10,2013-04-09 17:13:00,
2013-04-09 13:28:00,64.7,62.0,30.23,SSW,201,11.0,-999.0,90,-99.99,,,0.00,weatherlink.com 1.10,2013-04-09 17:28:00,
2013-04-09 13:43:00,64.1,61.0,30.23,SSW,207,12.0,-999.0,90,-99.99,,,0.00,weatherlink.com 1.10,2013-04-09 17:43:00,
2013-04-09 13:58:00,64.2,61.0,30.22,SSW,211,12.0,-999.0,90,-99.99,,,0.00,weatherlink.com 1.10,2013-04-09 17:58:00,
2013-04-09 14:13:00,64.1,61.0,30.22,SSW,203,13.0,-999.0,90,-99.99,,,0.00,weatherlink.com 1.10,2013-04-09 18:13:00,
2013-04-09 14:28:00,64.2,61.0,30.21,SSW,206,13.0,-999.0,90,-99.99,,,0.00,weatherlink.com 1.10,2013-04-09 18:28:00,
2013-04-09 14:43:00,64.8,62.0,30.20,SSW,205,14.0,-999.0,90,-99.99,,,0.00,weatherlink.com 1.10,2013-04-09 18:43:00,
2013-04-09 14:58:00,64.5,61.0,30.20,SSW,206,14.0,-999.0,89,-99.99,,,0.00,weatherlink.com 1.10,2013-04-09 18:58:00,
2013-04-09 15:13:00,64.5,62.0,30.19,SSW,202,14.0,-999.0,90,-99.99,,,0.00,weatherlink.com 1.10,2013-04-09 19:13:00,
2013-04-09 15:28:00,64.5,62.0,30.18,SSW,200,14.0,-999.0,90,-99.99,,,0.00,weatherlink.com 1.10,2013-04-09 19:28:00,
2013-04-09 15:43:00,64.7,62.0,30.18,SSW,208,15.0,-999.0,90,-99.99,,,0.00,weatherlink.com 1.10,2013-04-09 19:43:00,
2013-04-09 15:58:00,64.6,62.0,30.18,SSW,212,14.0,-999.0,90,-99.99,,,0.00,weatherlink.com 1.10,2013-04-09 19:58:00,
2013-04-09 16:13:00,64.1,62.0,30.17,SSW,209,14.0,-999.0,91,-99.99,,,0.00,weatherlink.com 1.10,2013-04-09 20:13:00,
2013-04-09 16:28:00,63.9,61.0,30.17,SSW,205,14.0,-999.0,91,-99.99,,,0.00,weatherlink.com 1.10,2013-04-09 20:28:00,
2013-04-09 16:43:00,64.0,61.0,30.17,SSW,208,15.0,-999.0,91,-99.99,,,0.00,weatherlink.com 1.10,2013-04-09 20:43:00,
2013-04-09 16:58:00,63.9,61.0,30.17,SSW,208,14.0,-999.0,91,-99.99,,,0.00,weatherlink.com 1.10,2013-04-09 20:58:00,
2013-04-09 17:13:00,63.9,61.0,30.17,SSW,202,13.0,-999.0,91,-99.99,,,0.00,weatherlink.com 1.10,2013-04-09 21:13:00,
2013-04-09 17:28:00,64.0,61.0,30.17,SSW,199,14.0,-999.0,91,-99.99,,,0.00,weatherlink.com 1.10,2013-04-09 21:28:00,
2013-04-09 17:43:00,64.0,61.0,30.17,SSW,202,15.0,-999.0,91,-99.99,,,0.00,weatherlink.com 1.10,2013-04-09 21:43:00,
2013-04-09 17:58:00,63.5,61.0,30.17,SSW,204,14.0,-999.0,91,-99.99,,,0.00,weatherlink.com 1.10,2013-04-09 21:58:00,
2013-04-09 18:13:00,63.2,61.0,30.17,SSW,208,13.0,-999.0,92,-99.99,,,0.00,weatherlink.com 1.10,2013-04-09 22:13:00,
2013-04-09 18:28:00,62.8,61.0,30.17,SSW,209,14.0,-999.0,92,-99.99,,,0.00,weatherlink.com 1.10,2013-04-09 22:28:00,
2013-04-09 18:43:00,62.8,61.0,30.16,SSW,212,16.0,-999.0,93,-99.99,,,0.00,weatherlink.com 1.10,2013-04-09 22:43:00,
2013-04-09 18:58:00,62.7,61.0,30.17,SSW,211,13.0,-999.0,93,-99.99,,,0.00,weatherlink.com 1.10,2013-04-09 22:58:00,
2013-04-09 19:13:00,62.6,61.0,30.17,SSW,213,13.0,-999.0,93,-99.99,,,0.00,weatherlink.com 1.10,2013-04-09 23:13:00,
2013-04-09 19:28:00,62.2,60.0,30.17,SSW,200,13.0,-999.0,93,-99.99,,,0.00,weatherlink.com 1.10,2013-04-09 23:28:00,
2013-04-09 19:43:00,62.0,60.0,30.18,SSW,210,13.0,-999.0,94,-99.99,,,0.00,weatherlink.com 1.10,2013-04-09 23:43:00,
2013-04-09 20:13:00,62.1,60.0,30.18,SW,216,13.0,-999.0,94,-99.99,,,0.00,weatherlink.com 1.10,2013-04-10 00:13:00,
2013-04-09 20:28:00,61.9,60.0,30.18,SW,214,12.0,-999.0,94,-99.99,,,0.00,weatherlink.com 1.10,2013-04-10 00:28:00,
2013-04-09 20:43:00,61.7,60.0,30.19,SSW,213,10.0,-999.0,94,-99.99,,,0.00,weatherlink.com 1.10,2013-04-10 00:43:00,
2013-04-09 20:58:00,61.8,60.0,30.19,SW,220,12.0,-999.0,94,-99.99,,,0.00,weatherlink.com 1.10,2013-04-10 00:58:00,
2013-04-09 21:13:00,61.9,60.0,30.20,SW,215,13.0,-999.0,94,-99.99,,,0.00,weatherlink.com 1.10,2013-04-10 01:13:00,
2013-04-09 21:28:00,61.5,60.0,30.20,SSW,209,11.0,-999.0,94,-99.99,,,0.00,weatherlink.com 1.10,2013-04-10 01:28:00,
2013-04-09 21:43:00,61.3,60.0,30.20,SW,217,11.0,-999.0,94,-99.99,,,0.00,weatherlink.com 1.10,2013-04-10 01:43:00,
2013-04-09 21:58:00,61.1,60.0,30.20,SW,217,11.0,-999.0,95,-99.99,,,0.00,weatherlink.com 1.10,2013-04-10 01:58:00,
2013-04-09 22:13:00,60.9,60.0,30.20,SW,230,9.0,-999.0,95,-99.99,,,0.00,weatherlink.com 1.10,2013-04-10 02:13:00,
2013-04-09 22:28:00,60.9,60.0,30.20,WSW,240,12.0,-999.0,95,-99.99,,,0.00,weatherlink.com 1.10,2013-04-10 02:28:00,
2013-04-09 22:43:00,61.3,60.0,30.19,SW,224,11.0,-999.0,95,-99.99,,,0.00,weatherlink.com 1.10,2013-04-10 02:43:00,
2013-04-09 22:58:00,61.3,60.0,30.19,SW,231,12.0,-999.0,96,-99.99,,,0.00,weatherlink.com 1.10,2013-04-10 02:58:00,
2013-04-09 23:13:00,61.1,60.0,30.19,SW,219,10.0,-999.0,96,-99.99,,,0.00,weatherlink.com 1.10,2013-04-10 03:13:00,
2013-04-09 23:28:00,61.1,60.0,30.19,SW,221,10.0,-999.0,96,-99.99,,,0.00,weatherlink.com 1.10,2013-04-10 03:28:00,
2013-04-09 23:43:00,61.2,60.0,30.18,SW,226,10.0,-999.0,96,-99.99,,,0.00,weatherlink.com 1.10,2013-04-10 03:43:00,
2013-04-09 23:58:00,61.1,60.0,30.18,SW,228,10.0,-999.0,96,-99.99,,,0.00,weatherlink.com 1.10,2013-04-10 03:58:00,